Location: Jastrz?bniki
(50.3667°N, 20.3833°E)
Time: 10:14:17
(UTC+00:00)

Cosmos 1346 Rocket - Pass Details

Date: 05 August 2024
Orbit: 503 x 516 km, 81.2° (Epoch: 09 September)

Event Time Altitude Azimuth Distance (km) Brightness Sun altitude
Exits shadow 01:40:35 - 165° (SSE) 2,277 5.7 -12.4°
Reaches altitude 10° 01:42:02 10° 158° (SSE) 1,718 5.1 -12.3°
Maximum altitude 01:45:25 32° 94° (E) 883 4.3 -11.9°
Drops below altitude 10° 01:48:49 10° 30° (NNE) 1,727 6.7 -11.5°
Sets 01:51:05 0° 20° (NNE) 2,617 7.6 -11.3°
